• In Hungary
  • List of Countries
  • For 7 days
  • Water Temperature
  • Satellite Maps
  • Weather Map
  • News
  • Weather Widgets
  • user-avatar
    Login

    Hourly Weather Zurawnica

    Today, 20 September, Thursday

    Time Temperature Precipitation Wind Pressure Humidity
    00:00 +17°C° 0 mm 2 mps 747 mmHg 74%
    01:00 +17°C° 0 mm 2 mps 747 mmHg 76%
    02:00 +16°C° 0 mm 1 mps 746 mmHg 78%
    03:00 +16°C° 0 mm 1 mps 746 mmHg 79%
    04:00 +15°C° 0 mm 1 mps 746 mmHg 79%
    05:00 +15°C° 0 mm 1 mps 746 mmHg 80%
    06:00 +16°C° 0 mm 1 mps 747 mmHg 78%
    07:00 +18°C° 0 mm 1 mps 747 mmHg 75%
    08:00 +19°C° 0 mm 1 mps 747 mmHg 68%
    09:00 +21°C° 0 mm 1 mps 747 mmHg 62%
    10:00 +23°C° 0 mm 1 mps 747 mmHg 56%
    11:00 +25°C° 0 mm 2 mps 747 mmHg 50%
    12:00 +25°C° 0 mm 1 mps 747 mmHg 47%
    13:00 +26°C° 0 mm 1 mps 747 mmHg 44%
    14:00 +27°C° 0 mm 1 mps 747 mmHg 42%
    15:00 +27°C° 0 mm 1 mps 747 mmHg 44%
    16:00 +27°C° 0 mm 1 mps 746 mmHg 46%
    17:00 +27°C° 0 mm 1 mps 746 mmHg 49%
    18:00 +25°C° 0 mm 1 mps 746 mmHg 53%
    19:00 +22°C° 0 mm 1 mps 746 mmHg 58%
    20:00 +20°C° 0 mm 1 mps 746 mmHg 62%
    21:00 +20°C° 0 mm 1 mps 746 mmHg 64%
    22:00 +19°C° 0 mm 1 mps 746 mmHg 65%
    23:00 +19°C° 0 mm 1 mps 746 mmHg 67%

    Tomorrow, 21 September, Friday

    Time Temperature Precipitation Wind Pressure Humidity
    00:00 +18°C° 0 mm 1 mps 745 mmHg 69%
    01:00 +17°C° 0 mm 2 mps 745 mmHg 71%
    02:00 +17°C° 0 mm 2 mps 745 mmHg 72%
    03:00 +16°C° 0 mm 2 mps 745 mmHg 74%
    04:00 +16°C° 0 mm 2 mps 745 mmHg 76%
    05:00 +16°C° 0 mm 2 mps 745 mmHg 78%
    06:00 +16°C° 0 mm 2 mps 745 mmHg 76%
    07:00 +17°C° 0 mm 2 mps 745 mmHg 75%
    08:00 +18°C° 0 mm 2 mps 745 mmHg 74%
    09:00 +20°C° 0 mm 3 mps 745 mmHg 68%
    10:00 +22°C° 0 mm 3 mps 745 mmHg 62%
    11:00 +25°C° 0 mm 3 mps 744 mmHg 56%
    12:00 +26°C° 0 mm 4 mps 744 mmHg 53%
    13:00 +27°C° 0 mm 4 mps 743 mmHg 49%
    14:00 +27°C° 0 mm 4 mps 743 mmHg 46%
    15:00 +27°C° 0 mm 4 mps 743 mmHg 49%
    16:00 +27°C° 0 mm 3 mps 742 mmHg 51%
    17:00 +26°C° 0 mm 3 mps 742 mmHg 54%
    18:00 +25°C° 0 mm 3 mps 742 mmHg 57%
    19:00 +22°C° 0 mm 4 mps 742 mmHg 61%
    20:00 +20°C° 0 mm 4 mps 742 mmHg 65%
    21:00 +20°C° 0 mm 4 mps 741 mmHg 64%
    22:00 +20°C° 0 mm 4 mps 741 mmHg 64%
    23:00 +19°C° 0 mm 4 mps 741 mmHg 64%

    Day after tomorrow, 22 September, Saturday

    Time Temperature Precipitation Wind Pressure Humidity
    00:00 +19°C° 0 mm 4 mps 741 mmHg 64%
    01:00 +18°C° 0 mm 4 mps 741 mmHg 63%
    02:00 +18°C° 0 mm 4 mps 740 mmHg 63%
    03:00 +17°C° 0 mm 5 mps 741 mmHg 62%
    04:00 +17°C° 0 mm 5 mps 741 mmHg 62%
    05:00 +17°C° 0 mm 6 mps 742 mmHg 61%
    06:00 +16°C° 0.2 mm 5 mps 742 mmHg 66%
    07:00 +14°C° 0.2 mm 5 mps 743 mmHg 71%
    08:00 +13°C° 0.2 mm 4 mps 744 mmHg 76%
    09:00 +13°C° 0.2 mm 4 mps 745 mmHg 77%
    10:00 +12°C° 0.2 mm 4 mps 745 mmHg 78%
    11:00 +12°C° 0.2 mm 3 mps 746 mmHg 79%
    12:00 +12°C° 0.9 mm 3 mps 746 mmHg 81%
    13:00 +12°C° 0.9 mm 3 mps 746 mmHg 82%
    14:00 +12°C° 0.9 mm 3 mps 746 mmHg 84%
    15:00 +12°C° 0.2 mm 3 mps 745 mmHg 82%
    16:00 +12°C° 0.2 mm 3 mps 745 mmHg 80%
    17:00 +12°C° 0.2 mm 3 mps 745 mmHg 79%
    18:00 +11°C° 0.1 mm 3 mps 745 mmHg 82%
    19:00 +11°C° 0.1 mm 3 mps 745 mmHg 86%
    20:00 +10°C° 0.1 mm 3 mps 745 mmHg 89%
    21:00 +10°C° 0 mm 3 mps 745 mmHg 88%
    22:00 +9°C° 0 mm 3 mps 745 mmHg 88%
    23:00 +9°C° 0 mm 3 mps 745 mmHg 87%

    23 September, Sunday

    Time Temperature Precipitation Wind Pressure Humidity
    00:00 +9°C° 0 mm 3 mps 745 mmHg 86%
    01:00 +9°C° 0 mm 3 mps 745 mmHg 85%
    02:00 +8°C° 0 mm 3 mps 745 mmHg 83%
    03:00 +8°C° 0 mm 3 mps 745 mmHg 83%
    04:00 +8°C° 0 mm 3 mps 746 mmHg 83%
    05:00 +8°C° 0 mm 3 mps 746 mmHg 82%
    06:00 +8°C° 0 mm 4 mps 746 mmHg 80%
    07:00 +8°C° 0 mm 4 mps 746 mmHg 77%
    08:00 +10°C° 0 mm 4 mps 746 mmHg 75%
    09:00 +12°C° 0 mm 5 mps 746 mmHg 68%
    10:00 +13°C° 0 mm 5 mps 746 mmHg 61%
    11:00 +15°C° 0 mm 6 mps 746 mmHg 54%
    12:00 +15°C° 0 mm 6 mps 746 mmHg 51%
    13:00 +16°C° 0 mm 6 mps 745 mmHg 48%
    14:00 +17°C° 0 mm 6 mps 745 mmHg 45%
    15:00 +16°C° 0 mm 5 mps 745 mmHg 49%
    16:00 +17°C° 0 mm 4 mps 744 mmHg 52%
    17:00 +16°C° 0 mm 3 mps 744 mmHg 56%
    18:00 +16°C° 0 mm 3 mps 744 mmHg 59%
    19:00 +14°C° 0 mm 3 mps 743 mmHg 63%
    20:00 +13°C° 0 mm 3 mps 743 mmHg 67%
    21:00 +13°C° 0 mm 3 mps 742 mmHg 69%
    22:00 +12°C° 0 mm 3 mps 741 mmHg 71%
    23:00 +12°C° 0 mm 3 mps 741 mmHg 73%

    24 September, Monday

    Time Temperature Precipitation Wind Pressure Humidity
    00:00 +12°C° 0.1 mm 4 mps 739 mmHg 73%
    01:00 +12°C° 0.1 mm 4 mps 738 mmHg 74%
    02:00 +13°C° 0.1 mm 5 mps 737 mmHg 74%
    03:00 +13°C° 3.5 mm 6 mps 735 mmHg 78%
    04:00 +12°C° 3.5 mm 7 mps 733 mmHg 82%
    05:00 +12°C° 3.5 mm 7 mps 732 mmHg 87%
    06:00 +13°C° 3.2 mm 9 mps 730 mmHg 87%
    07:00 +13°C° 3.2 mm 10 mps 729 mmHg 86%
    08:00 +13°C° 3.2 mm 11 mps 728 mmHg 86%
    09:00 +13°C° 1 mm 12 mps 728 mmHg 81%
    10:00 +13°C° 1 mm 12 mps 728 mmHg 77%
    11:00 +13°C° 1 mm 13 mps 728 mmHg 72%
    12:00 +12°C° 0.1 mm 13 mps 731 mmHg 72%
    13:00 +10°C° 0.1 mm 14 mps 733 mmHg 72%
    14:00 +8°C° 0.1 mm 14 mps 735 mmHg 71%
    15:00 +9°C° 0 mm 12 mps 736 mmHg 69%
    16:00 +9°C° 0 mm 11 mps 738 mmHg 66%
    17:00 +9°C° 0 mm 10 mps 739 mmHg 63%
    18:00 +10°C° 0.1 mm 9 mps 740 mmHg 66%
    19:00 +8°C° 0.1 mm 9 mps 741 mmHg 68%
    20:00 +9°C° 0.1 mm 8 mps 742 mmHg 70%
    21:00 +7°C° 0.1 mm 8 mps 743 mmHg 71%
    22:00 +7°C° 0.1 mm 8 mps 744 mmHg 71%
    23:00 +6°C° 0.1 mm 8 mps 744 mmHg 72%

    25 September, Tuesday

    Time Temperature Precipitation Wind Pressure Humidity
    00:00 +6°C° 0 mm 8 mps 745 mmHg 72%
    01:00 +5°C° 0 mm 7 mps 746 mmHg 73%
    02:00 +4°C° 0 mm 7 mps 746 mmHg 73%
    03:00 +4°C° 0 mm 6 mps 747 mmHg 72%
    04:00 +4°C° 0 mm 6 mps 747 mmHg 71%
    05:00 +4°C° 0 mm 6 mps 748 mmHg 69%
    06:00 +4°C° 0 mm 7 mps 748 mmHg 68%
    07:00 +4°C° 0 mm 7 mps 749 mmHg 67%
    08:00 +5°C° 0 mm 7 mps 749 mmHg 66%
    09:00 +6°C° 0 mm 8 mps 750 mmHg 63%
    10:00 +7°C° 0 mm 8 mps 750 mmHg 61%
    11:00 +9°C° 0 mm 8 mps 751 mmHg 58%
    12:00 +10°C° 0.2 mm 8 mps 751 mmHg 58%
    13:00 +10°C° 0.2 mm 8 mps 751 mmHg 58%
    14:00 +10°C° 0.2 mm 8 mps 752 mmHg 58%
    15:00 +10°C° 0.2 mm 7 mps 752 mmHg 58%
    16:00 +10°C° 0.2 mm 6 mps 752 mmHg 59%
    17:00 +9°C° 0.2 mm 6 mps 752 mmHg 59%
    18:00 +8°C° 0 mm 5 mps 753 mmHg 62%
    19:00 +7°C° 0 mm 4 mps 753 mmHg 64%
    20:00 +6°C° 0 mm 4 mps 753 mmHg 67%
    21:00 +6°C° 0 mm 4 mps 753 mmHg 66%
    22:00 +6°C° 0 mm 4 mps 753 mmHg 66%
    23:00 +6°C° 0 mm 5 mps 753 mmHg 65%
    Show more